Orbital Elements at Epoch 2459200.5 (2020-Dec-17.0) TDB
Reference: JPL 20 (heliocentric ecliptic J2000)
Element | Value | Uncertainty (1-sigma) | Units |
e | .2434107422615991 | 4.6905e-08 | |
a | 2.724270821937225 | 1.633e-08 | au |
q | 2.061154039047868 | 1.3259e-07 | au |
i | 9.672106497565956 | 5.2712e-06 | deg |
node | 28.00436210335669 | 2.8605e-05 | deg |
peri | 297.1932914571124 | 3.008e-05 | deg |
M | 181.8622704568618 | 9.6769e-06 | deg |
tp | 2460013.194381371937 (2023-Mar-09.69438137) | 4.6545e-05 | TDB |
period | 1642.380746876243 4.50 | 1.4767e-05 4.043e-08 | d yr |
n | .2191939966933421 | 1.9709e-09 | deg/d |
Q | 3.387387604826582 | 2.0305e-08 | au |
|
| | Orbit Determination Parameters
Additional Information
|